Wind_Speed
12 13 13 14 15 16 17 20 20 20 19 19 20 20 20 21 21 20 19 20 19 19 20 21 22 22 23 23 24 24 25 25 25 24 23 23 23 22 21 20 20 20 20 21
12 11 11 11 12 13 15 17 18 18 18 19 20 20 21 22 23 22 21 21 20 20 21 21 21 22 22 23 23 23 23 23 23 23 22 22 21 21 21 21 21 21 20 20
11 11 10 11 11 12 13 15 16 17 17 18 19 20 20 21 21 20 20 20 20 20 20 20 21 22 21 21 21 21 22 21 22 22 21 20 21 21 21 20 20 20 20 20
11 11 10 10 11 11 11 12 13 14 15 16 18 19 19 20 21 20 20 20 19 19 20 20 21 20 19 19 19 19 19 20 20 20 19 19 19 19 19 19 19 19 19 19
11 10 9 9 10 10 11 11 12 13 14 15 16 17 18 19 19 18 19 18 18 18 18 19 19 19 19 18 18 18 18 18 18 18 17 17 17 16 16 17 17 17 16 16
10 9 9 9 10 10 11 11 12 12 13 14 15 16 16 17 17 17 17 17 17 16 16 17 18 18 18 18 18 17 17 17 17 16 16 15 14 14 14 14 13 13 13 12
9 9 9 10 10 11 12 12 12 13 14 14 14 15 16 17 17 16 15 15 14 14 15 15 16 16 16 16 16 15 14 14 14 13 13 12 12 13 12 11 10 10 9 9
9 10 9 9 10 11 12 13 13 13 14 14 14 15 15 15 15 13 12 12 12 13 13 14 14 15 15 15 14 13 12 12 11 11 11 10 11 10 10 9 8 7 7 7
8 9 9 10 11 12 12 13 13 13 14 14 14 14 14 13 12 11 10 10 11 12 12 12 12 13 13 13 12 11 11 10 9 9 9 9 8 8 7 7 7 7 6 6
7 8 9 10 11 12 12 13 13 13 13 13 13 13 12 11 11 10 9 9 10 10 11 11 10 11 11 10 10 9 9 9 8 8 8 7 6 5 5 6 6 6 5 5
7 8 9 10 10 11 12 12 12 12 12 12 12 11 11 10 10 9 9 9 9 9 9 9 9 9 9 9 9 8 7 7 6 6 5 5 4 3 3 4 4 4 4 5
7 8 9 9 9 10 11 12 12 12 12 12 11 11 10 9 9 8 8 8 8 8 8 8 8 8 9 8 7 7 6 5 5 5 4 3 3 3 3 2 1 2 3 4
6 7 8 9 9 10 10 11 10 10 10 11 11 10 9 9 8 7 7 7 8 8 8 8 8 8 7 8 7 7 6 6 5 4 3 3 2 2 1 0 1 2 3 3
6 6 7 8 8 9 9 10 10 10 10 10 10 10 8 8 8 7 7 7 7 7 8 8 8 8 7 7 7 7 6 6 5 4 3 3 2 2 2 3 4 5 5 5
5 6 6 7 7 7 8 9 9 9 9 9 10 9 8 8 7 7 8 8 7 7 7 8 8 8 7 8 8 7 6 6 5 5 4 4 4 4 4 5 6 6 5 5
4 4 5 6 7 7 7 8 8 9 9 9 9 9 9 8 7 8 8 8 8 7 7 7 7 7 8 8 9 8 8 7 7 6 6 5 5 5 6 6 6 6 6 7
3 3 4 5 6 6 7 7 8 8 8 9 9 9 9 8 8 8 8 9 9 8 8 7 8 8 8 9 9 10 9 9 8 8 7 6 6 6 6 7 7 7 8 8
3 2 3 4 5 6 6 7 8 8 8 8 8 9 9 9 8 8 9 9 9 10 10 9 9 9 9 9 10 10 10 10 9 9 8 8 7 7 7 7 7 7 7 7
3 2 2 3 4 5 6 7 7 8 8 9 8 8 8 8 8 8 8 9 9 9 9 9 9 9 9 9 10 10 10 10 10 9 9 9 8 7 7 7 7 6 6 6
3 2 1 2 3 4 5 6 7 7 8 8 8 9 9 9 9 9 9 9 9 9 9 8 8 8 8 9 9 9 9 9 9 8 8 8 7 7 6 6 6 5 5 5
4 3 2 1 2 3 5 6 7 7 7 8 8 8 9 9 9 9 9 9 9 9 8 8 8 8 7 7 8 8 8 8 8 7 7 7 6 6 6 5 5 4 4 4
5 4 2 1 1 2 3 5 6 7 7 7 7 8 8 9 9 9 9 9 9 9 8 8 8 8 7 7 7 7 6 6 6 6 6 5 5 4 4 3 3 2 2 2
5 4 3 1 1 1 3 3 5 6 6 7 7 7 7 7 7 8 8 8 8 8 8 8 8 8 8 8 7 6 5 5 5 4 4 4 4 3 3 3 2 1 1 1
6 5 3 2 1 1 2 3 4 5 5 5 6 6 6 6 6 6 7 7 7 7 7 7 7 7 7 8 8 7 6 5 5 4 4 4 4 3 3 3 3 3 3 4
6 5 4 3 2 1 1 2 3 3 4 4 5 5 6 6 6 5 5 5 6 6 6 7 7 7 7 8 7 7 7 6 5 5 5 4 5 5 6 6 6 7 7 7
6 5 5 4 3 3 1 1 1 3 4 4 4 5 5 5 6 6 5 5 5 5 6 6 6 7 7 7 8 8 8 8 7 7 7 7 8 8 8 9 9 10 10 10
7 6 5 5 4 3 2 1 1 2 3 4 5 5 5 5 6 6 7 6 6 6 7 7 7 8 8 8 9 9 9 10 10 10 10 10 10 10 11 11 12 12 12 12
Wind_Direction
286 284 278 261 259 262 266 269 270 273 275 277 279 282 285 287 289 290 291 289 287 285 285 285 284 285 286 288 288 288 289 287 286 285 284 282 281 279 277 275 274 274 273 271
287 287 283 273 267 265 269 273 277 278 278 280 281 282 284 287 289 292 291 291 290 289 287 285 287 288 290 290 288 288 289 288 286 286 284 281 278 277 276 275 273 271 272 269
282 282 281 281 277 275 277 280 283 283 282 281 287 289 291 293 294 293 292 291 291 290 291 290 292 297 293 292 289 288 289 288 288 287 284 280 278 278 279 278 274 273 270 268
276 276 277 290 288 288 284 284 289 290 289 292 295 298 300 298 297 293 291 293 292 291 293 295 297 300 297 295 291 290 290 290 289 289 284 279 278 279 280 278 277 275 271 267
281 275 279 287 295 298 297 293 294 294 295 299 301 302 303 301 301 297 295 295 293 292 296 298 298 300 300 297 295 293 292 292 292 291 286 281 280 281 281 279 277 275 271 265
286 282 286 296 300 302 306 305 302 300 303 303 303 305 306 305 304 299 296 296 295 296 298 299 299 300 299 297 295 296 296 293 293 292 288 284 282 282 284 283 277 271 266 260
287 288 292 303 309 309 308 312 307 305 307 307 309 310 309 309 307 300 297 296 296 297 298 298 299 300 299 298 297 296 298 298 296 294 290 287 284 283 284 282 275 268 259 253
287 292 300 307 313 315 319 317 315 312 313 311 312 312 310 311 310 306 302 298 299 302 304 304 302 303 302 300 298 296 297 299 297 294 294 292 289 285 284 276 270 262 255 250
295 300 304 313 318 321 325 325 320 318 320 320 318 315 314 316 314 308 308 307 307 311 311 309 308 308 308 308 305 301 299 302 299 296 297 297 294 287 278 267 264 255 247 244
303 313 315 316 319 322 325 327 325 323 327 326 325 323 321 322 320 319 320 318 318 321 319 317 318 319 316 315 313 310 305 306 308 304 305 305 298 286 270 262 259 251 242 235
311 316 319 323 323 324 328 329 329 332 335 336 334 332 328 329 328 326 327 327 326 328 331 331 330 329 330 329 326 324 319 317 316 313 309 310 306 296 285 270 254 241 229 220
311 316 322 326 326 330 333 333 332 334 338 344 345 345 344 340 338 338 339 339 343 346 346 345 343 342 343 346 346 344 345 341 336 334 328 323 314 310 305 289 234 211 196 191
314 324 328 332 332 335 339 341 341 340 345 349 351 352 354 353 350 350 354 358 0 2 4 3 360 357 359 0 3 2 1 1 359 354 344 328 318 330 340 26 130 143 150 157
312 324 332 337 336 339 345 347 348 347 348 351 355 357 359 2 6 8 10 14 15 15 14 15 15 14 14 15 16 16 16 15 17 21 22 13 13 47 82 106 116 122 133 139
307 324 337 344 344 346 352 353 353 353 353 353 358 4 8 10 17 20 23 26 24 25 26 27 27 28 29 25 28 29 30 35 42 47 51 54 65 79 93 107 114 119 124 130
305 322 340 351 355 356 359 359 358 358 359 1 4 11 14 19 24 27 31 33 33 34 34 36 40 41 40 38 40 43 46 51 58 60 65 73 85 91 95 108 115 121 124 125
294 317 337 355 0 1 2 6 9 9 11 14 17 20 23 28 33 36 36 36 39 42 44 46 47 50 50 50 51 53 55 56 58 63 72 80 85 91 96 104 112 117 122 123
274 300 329 350 2 5 7 12 18 20 23 22 24 28 31 35 40 43 44 48 50 52 53 56 57 57 57 57 55 54 55 56 58 67 72 74 79 89 98 104 109 113 115 122
248 279 321 348 3 7 8 14 21 25 27 29 33 36 38 40 43 44 47 50 52 53 56 58 59 59 57 56 56 56 57 57 59 65 69 69 74 85 94 101 109 114 120 126
226 240 289 344 3 9 13 17 21 26 33 40 46 46 47 47 48 48 50 51 52 53 55 56 55 54 54 54 56 58 59 58 61 64 64 68 76 83 88 94 102 111 120 127
212 218 243 312 359 13 20 26 29 32 39 49 53 53 54 54 54 53 52 51 51 52 53 53 54 54 53 52 52 55 55 58 60 60 64 69 74 78 81 85 93 104 114 127
204 207 222 263 356 24 30 30 32 37 47 53 54 55 54 53 53 53 52 51 51 52 52 51 50 50 50 50 50 49 50 51 51 50 53 57 61 63 63 67 76 92 110 137
197 198 197 184 127 57 36 35 40 49 55 56 54 51 50 50 50 48 48 48 47 47 47 46 45 44 44 42 41 39 36 31 30 31 31 31 31 32 31 32 37 43 28 273
198 198 189 176 155 103 56 50 56 56 55 53 50 47 43 42 41 41 41 41 39 36 34 32 31 31 31 30 28 26 24 17 11 7 3 358 355 350 344 334 324 315 307 295
195 196 195 187 172 147 99 74 59 48 40 36 36 35 32 30 30 29 29 29 27 25 24 21 19 17 16 16 16 16 15 9 1 351 341 331 324 318 313 308 302 296 294 291
190 191 193 195 193 185 173 110 38 24 17 16 17 18 17 15 14 12 9 6 6 4 4 4 3 3 1 1 360 358 357 355 346 336 329 324 320 316 310 304 298 294 290 288
191 192 196 197 196 199 207 235 333 353 359 2 5 6 4 2 1 0 1 358 354 351 349 347 344 341 339 340 340 337 335 334 331 327 323 319 316 312 309 305 301 297 293 290
Height
5803 5802 5800 5799 5799 5800 5799 5798 5798 5797 5797 5797 5796 5795 5794 5793 5792 5790 5788 5787 5786 5784 5783 5782 5780 5778 5776 5774 5771 5769 5767 5765 5763 5762 5760 5758 5757 5757 5756 5755 5754 5754 5753 5753
5801 5799 5797 5796 5796 5796 5795 5794 5793 5793 5793 5792 5792 5790 5789 5787 5785 5784 5783 5782 5781 5779 5777 5776 5774 5772 5769 5767 5764 5762 5760 5758 5756 5754 5753 5751 5750 5750 5749 5748 5748 5747 5746 5746
5798 5797 5795 5794 5793 5792 5792 5791 5790 5789 5789 5787 5786 5784 5782 5781 5779 5778 5776 5775 5774 5773 5771 5769 5767 5765 5762 5759 5757 5755 5753 5751 5749 5747 5746 5745 5744 5743 5742 5741 5741 5740 5740 5739
5795 5795 5794 5794 5790 5790 5788 5787 5786 5785 5784 5783 5781 5779 5777 5775 5773 5772 5770 5769 5768 5766 5764 5763 5760 5758 5756 5753 5751 5749 5747 5745 5743 5741 5739 5738 5737 5736 5735 5735 5734 5734 5733 5733
5792 5791 5791 5791 5789 5787 5785 5784 5783 5782 5780 5779 5777 5775 5773 5770 5767 5766 5765 5763 5762 5760 5758 5756 5754 5752 5750 5748 5746 5743 5741 5739 5737 5735 5734 5733 5731 5731 5729 5729 5728 5728 5727 5727
5790 5789 5789 5789 5787 5784 5784 5782 5780 5778 5776 5775 5773 5771 5769 5765 5762 5760 5759 5757 5756 5754 5752 5751 5749 5747 5745 5743 5740 5738 5736 5734 5732 5730 5728 5727 5726 5726 5725 5724 5723 5722 5722 5722
5787 5786 5786 5786 5783 5782 5781 5780 5777 5774 5772 5770 5768 5767 5764 5760 5758 5756 5754 5753 5751 5749 5748 5746 5744 5742 5740 5737 5735 5733 5731 5729 5727 5725 5724 5723 5722 5721 5720 5720 5719 5719 5718 5719
5785 5784 5786 5783 5781 5780 5778 5775 5773 5770 5768 5766 5764 5761 5759 5757 5754 5752 5750 5748 5747 5745 5743 5742 5740 5738 5735 5733 5731 5729 5727 5725 5723 5722 5721 5719 5718 5717 5717 5716 5716 5716 5716 5716
5784 5784 5782 5780 5778 5776 5774 5772 5769 5767 5765 5762 5760 5758 5755 5753 5751 5749 5747 5745 5744 5742 5740 5738 5736 5734 5732 5729 5727 5725 5723 5722 5720 5719 5718 5717 5716 5715 5714 5714 5714 5714 5714 5714
5782 5780 5779 5778 5775 5773 5771 5769 5766 5764 5761 5759 5757 5754 5752 5750 5748 5746 5744 5742 5741 5739 5737 5735 5733 5731 5729 5726 5724 5722 5721 5719 5718 5717 5716 5715 5713 5713 5712 5712 5712 5712 5712 5712
5780 5779 5777 5775 5773 5771 5769 5766 5764 5761 5759 5756 5754 5752 5750 5748 5746 5744 5742 5740 5738 5737 5735 5733 5731 5729 5727 5725 5723 5721 5719 5718 5716 5715 5714 5713 5712 5711 5711 5710 5710 5710 5711 5711
5778 5777 5775 5774 5771 5769 5767 5764 5762 5760 5757 5755 5752 5750 5748 5746 5744 5742 5740 5739 5737 5735 5733 5731 5729 5727 5725 5723 5722 5720 5718 5717 5715 5714 5713 5712 5711 5711 5710 5710 5710 5709 5709 5710
5776 5775 5773 5771 5769 5767 5765 5763 5760 5758 5756 5754 5751 5749 5747 5745 5743 5741 5739 5738 5736 5734 5733 5731 5729 5727 5725 5723 5721 5720 5718 5717 5715 5714 5713 5712 5711 5711 5710 5710 5710 5710 5710 5710
5774 5773 5771 5770 5768 5766 5764 5761 5759 5757 5755 5753 5751 5748 5746 5744 5742 5741 5739 5737 5736 5734 5733 5731 5729 5727 5725 5724 5722 5720 5718 5717 5716 5715 5714 5713 5712 5711 5711 5711 5711 5711 5711 5712
5772 5771 5770 5768 5766 5765 5763 5761 5758 5756 5754 5752 5750 5748 5746 5744 5742 5741 5739 5737 5736 5734 5733 5731 5730 5728 5727 5725 5723 5721 5720 5718 5717 5716 5715 5714 5714 5713 5713 5712 5713 5713 5713 5714
5771 5770 5769 5767 5766 5764 5762 5760 5758 5756 5754 5752 5750 5748 5746 5744 5743 5741 5740 5738 5737 5735 5734 5732 5731 5730 5728 5727 5725 5723 5722 5720 5719 5718 5717 5717 5716 5716 5715 5715 5715 5715 5716 5716
5769 5768 5768 5767 5765 5764 5762 5760 5758 5756 5754 5753 5751 5749 5747 5745 5744 5742 5741 5739 5738 5737 5735 5734 5733 5731 5730 5729 5727 5726 5724 5723 5722 5721 5720 5719 5719 5718 5718 5718 5718 5718 5719 5719
5767 5767 5767 5766 5765 5763 5762 5760 5758 5757 5755 5753 5752 5750 5748 5747 5745 5744 5743 5741 5740 5739 5737 5736 5735 5734 5732 5731 5730 5728 5727 5726 5725 5724 5723 5722 5722 5721 5721 5721 5721 5721 5721 5722
5765 5766 5766 5765 5765 5763 5762 5760 5759 5757 5755 5754 5752 5751 5749 5748 5747 5746 5745 5744 5742 5741 5740 5739 5737 5736 5735 5734 5732 5731 5730 5729 5728 5727 5726 5726 5725 5725 5724 5724 5724 5724 5724 5725
5764 5764 5764 5764 5764 5763 5762 5760 5759 5757 5756 5755 5753 5752 5751 5750 5749 5748 5747 5745 5744 5743 5742 5741 5740 5739 5738 5736 5735 5734 5733 5732 5731 5730 5729 5729 5728 5728 5727 5727 5727 5727 5727 5727
5762 5763 5763 5763 5763 5763 5762 5761 5759 5758 5756 5755 5755 5754 5753 5752 5750 5749 5748 5747 5746 5745 5744 5743 5742 5741 5740 5739 5738 5737 5736 5735 5734 5733 5732 5731 5731 5730 5730 5730 5729 5729 5729 5729
5760 5761 5762 5762 5763 5762 5762 5761 5760 5758 5757 5757 5756 5755 5754 5753 5752 5751 5750 5749 5748 5747 5746 5745 5744 5743 5742 5741 5740 5739 5738 5737 5736 5735 5734 5734 5733 5733 5732 5732 5731 5731 5731 5731
5759 5760 5761 5762 5762 5762 5762 5761 5760 5759 5759 5758 5757 5757 5756 5755 5754 5753 5752 5751 5750 5749 5748 5747 5745 5744 5743 5742 5741 5740 5739 5738 5737 5737 5736 5735 5734 5734 5733 5733 5732 5732 5732 5731
5757 5759 5760 5761 5761 5761 5761 5761 5761 5760 5760 5759 5758 5757 5757 5756 5755 5754 5753 5752 5751 5750 5749 5748 5747 5746 5744 5743 5742 5741 5740 5739 5738 5737 5737 5736 5735 5734 5734 5733 5732 5732 5731 5731
5755 5757 5758 5759 5760 5761 5761 5761 5761 5761 5760 5760 5759 5758 5757 5756 5756 5755 5754 5753 5752 5751 5750 5749 5748 5747 5746 5744 5743 5742 5741 5739 5738 5738 5737 5736 5735 5734 5733 5732 5732 5731 5730 5729
5754 5756 5757 5758 5759 5760 5761 5761 5761 5761 5760 5760 5759 5758 5758 5757 5756 5755 5754 5753 5752 5751 5750 5750 5749 5747 5746 5745 5744 5742 5741 5739 5738 5737 5736 5735 5734 5732 5731 5730 5729 5729 5728 5727
5753 5754 5756 5757 5758 5759 5760 5760 5760 5760 5760 5759 5759 5758 5757 5757 5756 5755 5754 5753 5752 5751 5750 5749 5748 5747 5746 5744 5743 5742 5740 5739 5737 5736 5734 5733 5732 5730 5729 5728 5727 5726 5724 5723